Погода Янги-Юган

Погода Янги-Юган : погода сейчас, прогноз погоды и архив. Всё, что Вы хотите узнать о погоде Янги-Юган!

Хотите узнать прогноз погоды Янги-Юган? Тогда Вам сюда: Погода Янги-Юган

Поиск расширенной информации на нашем сайте:

Другие новости

Новости СМИ2

Главная страница сайта

Новости сайта

03.07.2017

Напоминаем, что на нашем специализированном сайте Метеоцентр.Азия вы можете получить высокодетализированные автоматические прогнозы погоды по пунктам России, СНГ и мира в авиационном формате (включающие направление и скорость ветра, видимость, явления погоды, количество и форму облачности, нижнюю и верхнюю границу облачности).


Погода Янги-Юган - сегодня

Время (UTC), дата Ветер
(°,м/с) 
Видим.   Явления Облачность Т
(°С)
Тd
(°С)
f(%) Тe
(°С)
Pmin
(гПа)
dP
(гПа)
Po
(мм)
O2
(г/м3)
Тmin Tmax R s Состояние
почвы
12 16.10.18 230 (ЮЗ) 4{11}  н/о    н/о 
+0.7 -0.4 92 -2  997.9  -1.1  745  300           
15 16.10.18 250 (З) 5{12}  20000 м    3/0 средняя 
[Ac As]
+0.5 -1.2 88 -2  996.1  -1.8  744  299    +0.9     
18 16.10.18 240 (ЮЗ) 6-10{14}  н/о    н/о 
+0.2 -1.9 86 -3  994.4  -1.7  743  299           
21 16.10.18 230 (ЮЗ) 4{14}  20000 м    ясно 
+0.4 -1.7 86 -2  993.3  -1.1  742  299           
00 17.10.18 250 (З) 5-10{12}  н/о    н/о 
+1.4 -1.2 83 -1  992.1  -1.2  741  297           
03 17.10.18 250 (З) 3{12}  20000 м    8/4 600 м средняя, верхняя 
[Sc|Ac trans|Cc]
+0.5 -1.8 85 -1  991.8  -0.2  741  298  +0.2      равномерный
сухой снег
100% 
06 17.10.18 280 (З) н/о    н/о 
+0.4 -2.5 81 -1  992.7  0.9  741  299           
09 17.10.18 290 (З) 20000 м    10/8 600 м средняя, верхняя 
[Sc|Ac trans|Ci fib]
+2.1 -3.2 68 +1  994.4  1.7  743  297           
12 17.10.18 320 (СЗ) н/о    н/о 
+1.5 -3.4 70 +1  997.2  745  299           
15 17.10.18 340 (С) 20000 м  слаб. ливневой снег  8/8 300 м кучево-дожд. 
[Cb cap]
+0 -1.7 88 -2  999.7  2.5  747  301    +2.3  0.6     
18 17.10.18 360 (С) н/о    н/о 
-0.3 -2.1 88 -2  1002.7  749  302           
21 17.10.18 360 (С) 20000 м  {ливн. осадки}  8/8 600 м кучево-дожд. 
[Cb cap]
-0.6 -4.4 75 -3  1005.3  2.6  751  304           
00 18.10.18 360 (С) н/о    н/о 
-0.9 -6.5 66 -3  1007.4  2.1  752  305           
03 18.10.18 350 (С) н/о    н/о 
-0.7 -6.6 64 -3  1009.3  2.1  754  305           
06 18.10.18 360 (С) н/о    н/о 
+0 -6.8 60 -2  1010.8  755  305           
09 18.10.18 350 (С) 20000 м    9/5 600 м средняя 
[Sc|Ac trans]
+0.5 -6.6 59 -1  1011.5  0.6  755  304           
12 18.10.18 330 (СЗ) н/о    н/о 
-0.9 -5.9 69 1012  0.4  756  306           
18 18.10.18 210 (ЮЗ) н/о    н/о 
-1.9 -5.4 77 -1  1010.9  -1.1  755  307           
21 18.10.18 170 (Ю) 20000 м    10/10 600 м 
[Sc]
-2.5 -5.1 82 -2  1010.1  -0.7  754  307           
00 19.10.18 180 (Ю) н/о    н/о 
-3 -5.3 84 -3  1009.9  -0.3  754  308           
03 19.10.18 140 (ЮВ) 20000 м    10/0 средняя 
[Ac und]
-3.1 -5.5 83 -3  1009.4  -0.5  754  308  -3.2      равномерный
сухой снег
100% 
06 19.10.18 180 (Ю) н/о    н/о 
-1.4 -5 76 -1  1009.1  -0.2  754  306           
09 19.10.18 210 (ЮЗ) 20000 м    10/5 600 м кучево-дожд., средняя 
[Cb cap|Ac As]
-0.4 -6.1 65 1008.8  -0.2  753  305           
12 19.10.18 140 (ЮВ) н/о    н/о 
-1.4 -6.1 70 -1  1008.5  -0.4  753  306           
18 19.10.18 130 (ЮВ) н/о    н/о 
-2.2 -8.8 61 -3  1007.7  -0.7  752  307           
Время (UTC), дата Ветер
(°,м/с) 
Видим.   Явления Облачность Т
(°С)
Тd
(°С)
f(%) Тe
(°С)
Pmin
(гПа)
dP
(гПа)
Po
(мм)
O2
(г/м3)
Тmin Tmax R s Состояние
почвы

Для получения пояснительной информации подведите курсор к названию столбца.

ПОГОДА Янги-Юган - архив

Всё, что Вы хотите узнать о погоде Янги-Юган - удобно и подробно!

Выберите нужную дату (начиная с 1 января 2015* года) и нажмите кнопку "Найти".
Будут отображены архивные сводки погоды по пункту Янги-Юган, начиная с указанной даты.


Отображать данные в формате CSV (для использования в таблицах Excel)


Внимание! Наш архив погоды предназначен исключительно для личного некоммерческого использования в познавательных целях. Если Вам необходимы официальные справки о состоянии погоды (для производственных, юридических, коммерческих и т.п. целей), обращайтесь в органы Росгидромета.

*Примечание: данная дата относится к архиву по метеостанциям СССР (Россия, СНГ, Балтия).
Архив по метеостанциям Зарубежной Европы и Азии (кроме Китая) хранится 10 дней, по другим регионам земного шара (Китай, Африка, Америка, Австралия, Океания) - 1 день.

Янги-Юган - район местоположения метеостанции


Название, широта, долгота, высота метеостанции:
Янги-Юган 66.1°ш. 68.7°д. 40 м над ур. моря [Российская Федерация]

Дополнительная информация

В oтличие oт бoльшинства пoгoдных сайтoв мы публикуем пoдрoбную метеoинфoрмацию в детальнoм прoфессиoнальнoм фoрмате.

Характеристики температуры и влажнoсти вoздуха измеряются на высoте 2 м в тени вдали oт зданий и деревьев.
Скoрoсть ветра измеряется на высoте 10 м (на урoвне рoста челoвека скoрoсть ветра ниже в 1.5-2 раза). Если метеoстанция нахoдится в гoрoде или в лесу, тo скoрoсть ветра занижена на 2-4 м/с пo сравнению с oткрытым местoм. Скoрoсть ветра над акватoриями крупных рек и oзёр, а также на вершинах хoлмoв на 2-5 м/с выше, чем в oбычных услoвиях.
Атмoсфернoе давление в разных тoчках местнoсти мoжет значительнo oтличаться oт давления на метеoстанции, в зависимoсти oт услoвий рельефа (при пoдъёме на 10 м давление пoнижается примернo на 1 мм рт.ст.).